Voltar ao catálogo

SOHLA-1

MAIDO-1

AtivoCiênciaSSO
NORAD 33496·PAYLOAD·🇯🇵 Japan

Lançado Jan 23, 2009 de Tanegashima Space Center

Loading…

Próximas Passagens (próximas 24 horas)

TLE

AtualizadoSource: Space-Track

Época: Sep 14, 2026, 13:25 UTC

1 33496U 09002E   26257.55933490  .00000333  00000-0  57178-4 0  9997
2 33496  98.1291 162.7249 0007194  89.1791 271.0242 14.75093276947163

Acompanhe SOHLA-1 em tempo real com AllMySat

Download on the App Store